User: anonymous   Login
Location: La Brionne
(46.1728°N, 1.7849°E)
Time: 21:01:24
(UTC+00:00)
Language:

Cosmos 1850 Rocket - Orbit

View from above orbital plane
View from above orbital plane
View from above satellite
View from above satellite

Ground track
Ground track

The orbit data is extracted from the following two-line orbital elements,

1 18096U 87049B   21271.33856700  .00000105  00000-0  44539-4 0  9992
2 18096  74.0415 233.0040 0021342  16.7909 343.3946 14.36600292796279
Epoch (UTC): 28 September 2021 08:07:32
Eccentricity: 0.0021342
inclination: 74.0415°
perigee height: 754 km
apogee height: 785 km
right ascension of ascending node: 233.0040°
argument of perigee: 16.7909°
revolutions per day: 14.36600292
mean anomaly at epoch: 343.3946°
orbit number at epoch: 79627

The dashed part of the orbit path shows where the satellite is in the earth's shadow,  

DLR